Annapolis Naval Academy, MD

12:59 PM EDT on April 30, 2017 (GMT -0400)
Annapolis Naval Academy

Weather History for KNAK - March, 2013

Change the Weather History Date:

Friday, March 29, 2013

  Actual Average (KBWI) Record (KBWI)
Temperature  
Mean Temperature 63 °F -  
Max Temperature 54 °F 61 °F 90 °F (1945)
Min Temperature 42 °F 39 °F 18 °F (1923)
Degree Days  
Heating Degree Days 2    
Growing Degree Days 13 (Base 50)    
Moisture  
Dew Point 30 °F    
Average Humidity 52    
Maximum Humidity 82    
Minimum Humidity 19    
Precipitation  
Precipitation 0.00 in - - ()
Sea Level Pressure  
Sea Level Pressure 30.20 in    
Wind  
Wind Speed 6 mph (NW)    
Max Wind Speed 12 mph    
Max Gust Speed -    
Visibility 10 miles    
Events      
Averages and records for this station are not official NWS values.
T = Trace of Precipitation, MM = Missing Value Source: NWS Daily Summary

Daily Weather History Graph

Daily Weather History Graph

Search for Another Location

Airport or City:

Trip Planner

Search our weather history database for the weather conditions in past years. The results will help you decide how hot, cold, wet, or windy it might be!

Date:

Astronomy

Mar. 29, 2013 Rise Set
Actual Time 6:54 AM EDT 7:26 PM EDT
Civil Twilight 6:28 AM EDT 7:53 PM EDT
Nautical Twilight 5:56 AM EDT 8:25 PM EDT
Astronomical Twilight 5:24 AM EDT 8:57 PM EDT
Moon 10:22 PM EDT (3/29) 8:03 AM EDT (3/29)
Length of Visible Light 13h 25m
Length of Day
12h 32m
Waning Gibbous, 93% of the Moon is Illuminated
Mar 29
Waning Gibbous
Apr 3
Last Quarter
Apr 10
New
Apr 18
First Quarter
Apr 25
Full

Hourly Weather History & Observations

Time (EDT) Temp. Windchill Dew Point Humidity Pressure Visibility Wind Dir Wind Speed Gust Speed Precip Events Conditions
12:54 AM 45.0 °F 41.8 °F 30.0 °F 56% 30.22 in 10.0 mi WNW 5.8 mph - N/A   Overcast
1:54 AM 44.1 °F 40.1 °F 30.0 °F 58% 30.22 in 10.0 mi NW 6.9 mph - N/A   Overcast
2:54 AM 44.1 °F 40.1 °F 30.0 °F 58% 30.22 in 10.0 mi WNW 6.9 mph - N/A   Partly Cloudy
3:54 AM 43.0 °F 39.5 °F 28.0 °F 56% 30.22 in 10.0 mi WNW 5.8 mph - N/A   Clear
4:54 AM 43.0 °F 38.8 °F 27.0 °F 53% 30.22 in 10.0 mi WNW 6.9 mph - N/A   Clear
5:54 AM 42.1 °F 37.7 °F 27.0 °F 55% 30.22 in 10.0 mi WNW 6.9 mph - N/A   Clear
6:54 AM 42.1 °F 39.2 °F 25.0 °F 51% 30.23 in 10.0 mi WNW 4.6 mph - N/A   Mostly Cloudy
7:54 AM 43.0 °F 39.5 °F 28.0 °F 56% 30.25 in 10.0 mi WNW 5.8 mph - N/A   Mostly Cloudy
8:54 AM 45.0 °F 40.1 °F 26.1 °F 48% 30.25 in 10.0 mi WNW 9.2 mph - N/A   Partly Cloudy
9:54 AM 46.0 °F 41.4 °F 27.0 °F 47% 30.25 in 10.0 mi NNW 9.2 mph - N/A   Clear
10:54 AM 46.9 °F - 28.0 °F 48% 30.25 in 10.0 mi NW 9.2 mph - N/A   Clear
11:54 AM 48.9 °F - 28.0 °F 44% 30.23 in 10.0 mi NW 9.2 mph - N/A   Clear
12:54 PM 50.0 °F - 28.9 °F 44% 30.20 in 10.0 mi NW 6.9 mph - N/A   Overcast
1:54 PM 51.1 °F - 27.0 °F 39% 30.18 in 10.0 mi NW 11.5 mph - N/A   Overcast
2:54 PM 51.1 °F - 28.9 °F 43% 30.17 in 10.0 mi NW 5.8 mph - N/A   Overcast
3:54 PM 53.1 °F - 26.1 °F 35% 30.15 in 10.0 mi NW 11.5 mph - N/A   Overcast
4:54 PM 53.1 °F - 28.9 °F 40% 30.14 in 10.0 mi NNW 10.4 mph - N/A   Overcast
5:10 PM 84.2 °F - 37.4 °F 19% - - North - - N/A   Unknown
5:54 PM 53.1 °F - 27.0 °F 37% 30.14 in 10.0 mi NNW 10.4 mph - N/A   Scattered Clouds
6:54 PM 51.1 °F - 30.0 °F 44% 30.15 in 10.0 mi NW 4.6 mph - N/A   Scattered Clouds
7:54 PM 51.1 °F - 28.9 °F 43% 30.16 in 10.0 mi Calm Calm - N/A   Mostly Cloudy
8:54 PM 45.0 °F - 37.0 °F 74% 30.18 in 10.0 mi Calm Calm - N/A   Overcast
9:54 PM 45.0 °F - 39.9 °F 82% 30.19 in 10.0 mi Calm Calm - N/A   Overcast
10:54 PM 45.0 °F - 39.0 °F 80% 30.20 in 10.0 mi Calm Calm - N/A   Overcast
11:54 PM 44.1 °F - 39.0 °F 82% 30.19 in 10.0 mi Calm Calm - N/A   Overcast